Location: Unspecified
(42.3650°N, 71.1030°W)
Time: 14:54:16
(UTC+00:00)

Explorer 11/Cluster Stage 4 - Pass Details

Date: 22 June 2024
Orbit: 465 x 1214 km, 28.8° (Epoch: 22 July)

Event Time Altitude Azimuth Distance (km) Brightness Sun altitude
Rises 23:50:06 0° 207° (SSW) 4,076 10.2 4.7°
Reaches altitude 10° 23:54:36 10° 184° (S) 3,152 9.4 4.0°
Maximum altitude 23:58:25 14° 156° (SSE) 2,836 9.0 3.4°
Drops below altitude 10° 00:02:12 10° 127° (SE) 3,114 9.0 2.8°
Sets 00:06:34 0° 104° (ESE) 3,994 9.6 2.1°
